Location: Central Falls
(41.8900°N, 71.3929°W)
Time: 06:54:37
(UTC+00:00)

Altair - Pass Details

Date: 12 December 2023
Orbit: 1501 x 1682 km, 47.2° (Epoch: 29 February)

Event Time Altitude Azimuth Distance (km) Brightness Sun altitude
Rises 14:12:31 0° 279° (W) 4,823 9.7 16.7°
Reaches altitude 10° 14:15:45 10° 283° (WNW) 3,813 9.2 17.0°
Maximum altitude 14:25:20 64° 4° (N) 1,691 7.8 18.0°
Drops below altitude 10° 14:34:34 10° 86° (E) 3,681 9.9 18.9°
Sets 14:37:37 0° 90° (E) 4,649 10.4 19.2°
